Cloud_Cover
100 100 100 100 100 100 100 100 92 100 100 100 100 51 85 50 85 8 93 46 8 36 32 9 5 6 5 4 0 0 0 0
100 100 100 99 100 100 100 100 100 100 100 100 100 93 100 15 98 26 6 5 6 17 5 5 5 0 5 0 0 0 0 0
100 100 100 100 100 100 100 100 100 100 100 100 100 90 100 100 66 5 5 5 5 3 5 0 4 0 0 0 0 0 0 0
100 100 100 100 100 100 100 100 100 100 100 100 100 99 93 85 5 13 5 5 1 3 0 0 0 0 0 0 0 0 0 0
100 100 100 100 100 100 100 100 100 100 100 100 89 92 100 100 5 5 3 3 4 0 0 0 0 0 0 0 0 0 0 0
100 100 100 100 100 100 100 100 100 100 100 100 100 100 99 76 69 33 5 5 4 5 0 0 0 0 0 0 0 0 0 0
100 100 100 100 100 100 94 95 100 100 98 100 100 100 100 100 84 63 6 5 36 8 8 5 81 100 9 3 0 0 0 0
100 100 100 81 82 92 92 100 100 100 100 100 100 100 100 100 67 94 97 75 8 88 98 100 100 59 4 0 0 0 0 0
22 33 99 88 83 100 98 100 100 100 100 98 100 100 100 100 100 100 100 100 100 100 100 29 9 0 0 0 0 0 0 0
78 79 84 72 100 100 100 100 100 100 100 100 100 100 100 100 100 100 100 100 100 97 53 5 2 3 5 5 5 2 0 0
78 72 62 74 96 100 100 100 100 100 100 100 100 100 100 100 100 100 97 76 25 1 2 5 5 3 5 5 10 7 2 3
98 100 100 73 100 100 100 100 100 100 100 100 100 100 100 89 41 7 0 0 0 0 0 0 0 0 0 0 4 0 0 3
91 97 56 39 62 51 71 72 43 45 9 0 3 1 0 0 0 0 0 0 0 0 0 1 0 2 0 0 0 4 38 84
74 42 22 5 5 0 0 1 0 0 0 0 0 0 3 0 0 0 0 0 3 3 5 5 5 5 12 5 20 24 4 37
47 44 5 5 18 12 4 3 0 0 1 3 5 0 0 0 0 0 1 4 4 0 1 5 5 5 28 9 6 0 4 3
5 6 34 10 2 0 0 0 4 5 5 39 5 5 4 0 0 0 0 0 0 1 1 1 4 5 5 5 6 5 5 5
23 46 1 0 0 0 0 4 5 6 7 5 5 5 5 4 0 0 0 0 0 0 0 2 12 13 5 5 5 5 15 82
1 0 0 1 5 5 4 5 22 37 24 5 13 5 5 0 0 0 0 0 2 5 5 5 48 100 92 5 11 30 25 96
0 2 2 5 5 5 20 16 16 77 54 37 25 4 0 0 0 2 21 47 30 67 92 72 42 45 83 37 65 98 100 100
0 3 5 5 5 7 99 82 78 96 87 81 4 3 5 5 63 59 7 64 92 37 100 100 88 82 77 86 100 100 100 100